Time,TemperatureF,DewpointF,PressureIn,WindDirection,WindDirectionDegrees,WindSpeedMPH,WindSpeedGustMPH,Humidity,HourlyPrecipIn,Conditions,Clouds,dailyrainin,SoftwareType,DateUTC
2013-10-21 00:24:00,44.0,43.0,30.02,East,98,0.0,-999.0,96,-99.99,,,-99.99,,2013-10-21 04:24:00,
2013-10-21 00:44:00,44.0,43.0,30.02,East,98,0.0,-999.0,96,-99.99,,,-99.99,,2013-10-21 04:44:00,
2013-10-21 00:53:00,44.0,43.0,30.02,East,98,0.0,-999.0,96,-99.99,,,-99.99,,2013-10-21 04:53:00,
2013-10-21 01:13:00,44.0,43.0,30.02,East,98,0.0,-999.0,96,-99.99,,,-99.99,,2013-10-21 05:13:00,
2013-10-21 01:43:00,43.0,42.0,30.02,East,98,0.0,-999.0,96,-99.99,,,-99.99,,2013-10-21 05:43:00,
2013-10-21 01:52:00,43.0,42.0,30.02,East,98,0.0,-999.0,96,-99.99,,,-99.99,,2013-10-21 05:52:00,
2013-10-21 02:12:00,43.0,42.0,30.02,East,98,0.0,-999.0,96,-99.99,,,-99.99,,2013-10-21 06:12:00,
2013-10-21 05:43:00,41.0,40.0,30.04,East,98,0.0,-999.0,97,-99.99,,,-99.99,,2013-10-21 09:43:00,
2013-10-21 05:53:00,41.0,40.0,30.04,East,98,0.0,-999.0,97,-99.99,,,-99.99,,2013-10-21 09:53:00,
2013-10-21 06:13:00,41.0,40.0,30.04,East,98,0.0,-999.0,97,-99.99,,,-99.99,,2013-10-21 10:13:00,
2013-10-21 06:23:00,41.0,40.0,30.05,East,98,0.0,-999.0,97,-99.99,,,-99.99,,2013-10-21 10:23:00,
2013-10-21 06:43:00,42.0,41.0,30.05,East,98,0.0,-999.0,97,-99.99,,,-99.99,,2013-10-21 10:43:00,
2013-10-21 06:53:00,42.0,41.0,30.05,East,98,0.0,-999.0,97,-99.99,,,-99.99,,2013-10-21 10:53:00,
2013-10-21 07:12:00,42.0,41.0,30.04,East,98,0.0,-999.0,97,-99.99,,,-99.99,,2013-10-21 11:12:00,
2013-10-21 07:22:00,42.0,41.0,30.05,East,98,0.0,-999.0,97,-99.99,,,-99.99,,2013-10-21 11:22:00,
2013-10-21 07:42:00,42.0,41.0,30.05,East,98,0.0,-999.0,97,-99.99,,,-99.99,,2013-10-21 11:42:00,
2013-10-21 07:52:00,43.0,42.0,30.06,East,98,0.0,-999.0,98,-99.99,,,-99.99,,2013-10-21 11:52:00,
2013-10-21 08:12:00,43.0,42.0,30.06,East,98,0.0,-999.0,98,-99.99,,,-99.99,,2013-10-21 12:12:00,
2013-10-21 08:22:00,43.0,42.0,30.06,East,98,0.0,-999.0,98,-99.99,,,-99.99,,2013-10-21 12:22:00,
2013-10-21 08:42:00,43.0,42.0,30.06,East,98,0.0,-999.0,98,-99.99,,,-99.99,,2013-10-21 12:42:00,
2013-10-21 08:52:00,44.0,43.0,30.07,East,98,0.0,-999.0,98,-99.99,,,-99.99,,2013-10-21 12:52:00,
2013-10-21 09:11:00,44.0,43.0,30.07,East,98,0.0,-999.0,98,-99.99,,,-99.99,,2013-10-21 13:11:00,
2013-10-21 09:22:00,45.0,44.0,30.08,East,98,0.0,-999.0,98,-99.99,,,-99.99,,2013-10-21 13:22:00,
2013-10-21 09:42:00,47.0,46.0,30.08,SSE,153,0.0,-999.0,98,-99.99,,,-99.99,,2013-10-21 13:42:00,
2013-10-21 09:52:00,49.0,48.0,30.08,SSE,153,0.0,-999.0,98,-99.99,,,-99.99,,2013-10-21 13:52:00,
2013-10-21 10:12:00,50.0,49.0,30.08,SSE,153,0.0,-999.0,98,-99.99,,,-99.99,,2013-10-21 14:12:00,
2013-10-21 10:22:00,50.0,49.0,30.09,West,272,0.0,-999.0,98,-99.99,,,-99.99,,2013-10-21 14:22:00,
2013-10-21 10:42:00,51.0,50.0,30.08,West,273,0.0,-999.0,98,-99.99,,,-99.99,,2013-10-21 14:42:00,
2013-10-21 10:52:00,53.0,51.0,30.08,West,273,0.0,-999.0,94,-99.99,,,-99.99,,2013-10-21 14:52:00,
2013-10-21 11:12:00,55.0,52.0,30.08,West,273,0.0,-999.0,90,-99.99,,,-99.99,,2013-10-21 15:12:00,
2013-10-21 11:22:00,57.0,53.0,30.08,West,273,0.0,-999.0,85,-99.99,,,-99.99,,2013-10-21 15:22:00,
2013-10-21 11:43:00,58.0,53.0,30.08,West,273,0.0,-999.0,82,-99.99,,,-99.99,,2013-10-21 15:43:00,
2013-10-21 11:54:00,60.0,53.0,30.07,West,273,0.0,-999.0,79,-99.99,,,-99.99,,2013-10-21 15:54:00,
2013-10-21 12:13:00,61.0,53.0,30.06,South,185,0.0,-999.0,76,-99.99,,,-99.99,,2013-10-21 16:13:00,
2013-10-21 12:23:00,63.0,54.0,30.06,SSE,166,0.0,-999.0,73,-99.99,,,-99.99,,2013-10-21 16:23:00,
2013-10-21 12:43:00,63.0,54.0,30.06,SE,136,0.0,-999.0,72,-99.99,,,-99.99,,2013-10-21 16:43:00,
2013-10-21 12:54:00,64.0,54.0,30.05,West,269,0.0,-999.0,70,-99.99,,,-99.99,,2013-10-21 16:54:00,
2013-10-21 13:12:00,64.0,54.0,30.05,NW,317,0.0,-999.0,69,-99.99,,,-99.99,,2013-10-21 17:12:00,
2013-10-21 13:22:00,66.0,54.0,30.04,SE,130,0.0,-999.0,66,-99.99,,,-99.99,,2013-10-21 17:22:00,
2013-10-21 13:43:00,67.0,55.0,30.03,WNW,284,0.0,-999.0,65,-99.99,,,-99.99,,2013-10-21 17:43:00,
2013-10-21 13:53:00,67.0,55.0,30.03,SSE,159,0.0,-999.0,65,-99.99,,,-99.99,,2013-10-21 17:53:00,
2013-10-21 14:12:00,68.0,55.0,30.02,ENE,63,0.0,-999.0,64,-99.99,,,-99.99,,2013-10-21 18:12:00,
2013-10-21 14:22:00,69.0,56.0,30.01,NE,39,0.0,-999.0,64,-99.99,,,-99.99,,2013-10-21 18:22:00,
2013-10-21 14:42:00,69.0,55.0,30.00,NW,315,0.0,-999.0,62,-99.99,,,-99.99,,2013-10-21 18:42:00,
2013-10-21 14:52:00,69.0,55.0,29.99,NE,56,0.0,-999.0,61,-99.99,,,-99.99,,2013-10-21 18:52:00,
2013-10-21 15:11:00,69.0,56.0,29.99,NNW,338,0.0,-999.0,63,-99.99,,,-99.99,,2013-10-21 19:11:00,
2013-10-21 15:22:00,69.0,56.0,29.98,WNW,286,0.0,-999.0,63,-99.99,,,-99.99,,2013-10-21 19:22:00,
2013-10-21 15:42:00,68.0,55.0,29.98,SE,136,0.0,-999.0,64,-99.99,,,-99.99,,2013-10-21 19:42:00,
2013-10-21 15:52:00,68.0,55.0,29.98,NE,53,0.0,-999.0,64,-99.99,,,-99.99,,2013-10-21 19:52:00,
2013-10-21 16:11:00,68.0,55.0,29.97,NNW,346,0.0,-999.0,64,-99.99,,,-99.99,,2013-10-21 20:11:00,
2013-10-21 16:22:00,67.0,55.0,29.96,NW,306,0.0,-999.0,65,-99.99,,,-99.99,,2013-10-21 20:22:00,
2013-10-21 16:43:00,67.0,55.0,29.96,NW,314,0.0,-999.0,65,-99.99,,,-99.99,,2013-10-21 20:43:00,
2013-10-21 16:53:00,67.0,55.0,29.95,WNW,296,0.0,-999.0,66,-99.99,,,-99.99,,2013-10-21 20:53:00,
2013-10-21 17:12:00,66.0,55.0,29.95,SW,235,0.0,-999.0,67,-99.99,,,-99.99,,2013-10-21 21:12:00,
2013-10-21 17:22:00,66.0,56.0,29.95,South,170,0.0,-999.0,69,-99.99,,,-99.99,,2013-10-21 21:22:00,
2013-10-21 17:44:00,65.0,54.0,29.95,NNW,339,0.0,-999.0,67,-99.99,,,-99.99,,2013-10-21 21:44:00,
2013-10-21 17:54:00,65.0,55.0,29.96,WNW,285,0.0,-999.0,70,-99.99,,,-99.99,,2013-10-21 21:54:00,
2013-10-21 18:13:00,64.0,55.0,29.96,NNW,347,0.0,-999.0,73,-99.99,,,-99.99,,2013-10-21 22:13:00,
2013-10-21 18:24:00,63.0,55.0,29.95,NNW,347,0.0,-999.0,76,-99.99,,,-99.99,,2013-10-21 22:24:00,
2013-10-21 18:44:00,62.0,54.0,29.95,NNW,347,0.0,-999.0,76,-99.99,,,-99.99,,2013-10-21 22:44:00,
2013-10-21 18:54:00,62.0,55.0,29.96,NNW,347,0.0,-999.0,79,-99.99,,,-99.99,,2013-10-21 22:54:00,
2013-10-21 19:13:00,61.0,55.0,29.97,NNW,347,0.0,-999.0,81,-99.99,,,-99.99,,2013-10-21 23:13:00,
2013-10-21 19:22:00,60.0,55.0,29.96,NNW,347,0.0,-999.0,83,-99.99,,,-99.99,,2013-10-21 23:22:00,
2013-10-21 19:42:00,59.0,55.0,29.96,NNW,347,0.0,-999.0,86,-99.99,,,-99.99,,2013-10-21 23:42:00,
2013-10-21 19:53:00,58.0,54.0,29.95,NNW,347,0.0,-999.0,88,-99.99,,,-99.99,,2013-10-21 23:53:00,
2013-10-21 20:12:00,57.0,54.0,29.96,NNW,347,0.0,-999.0,89,-99.99,,,-99.99,,2013-10-22 00:12:00,
2013-10-21 20:22:00,57.0,54.0,29.97,NNW,347,0.0,-999.0,90,-99.99,,,-99.99,,2013-10-22 00:22:00,
2013-10-21 20:42:00,56.0,53.0,29.96,NNW,347,0.0,-999.0,91,-99.99,,,-99.99,,2013-10-22 00:42:00,
2013-10-21 20:53:00,55.0,53.0,29.96,NNW,347,0.0,-999.0,92,-99.99,,,-99.99,,2013-10-22 00:53:00,
2013-10-21 21:12:00,55.0,53.0,29.95,NNW,347,0.0,-999.0,93,-99.99,,,-99.99,,2013-10-22 01:12:00,
2013-10-21 21:22:00,55.0,53.0,29.95,NNW,347,0.0,-999.0,94,-99.99,,,-99.99,,2013-10-22 01:22:00,
2013-10-21 21:42:00,55.0,53.0,29.95,NNW,347,0.0,-999.0,94,-99.99,,,-99.99,,2013-10-22 01:42:00,
2013-10-21 21:53:00,54.0,52.0,29.94,NNW,347,0.0,-999.0,94,-99.99,,,-99.99,,2013-10-22 01:53:00,
2013-10-21 22:11:00,54.0,53.0,29.94,NNW,347,0.0,-999.0,95,-99.99,,,-99.99,,2013-10-22 02:11:00,
2013-10-21 22:22:00,54.0,53.0,29.95,NNW,347,0.0,-999.0,95,-99.99,,,-99.99,,2013-10-22 02:22:00,
2013-10-21 22:43:00,54.0,53.0,29.94,NNW,347,0.0,-999.0,95,-99.99,,,-99.99,,2013-10-22 02:43:00,
2013-10-21 22:52:00,54.0,53.0,29.95,NNW,347,0.0,-999.0,96,-99.99,,,-99.99,,2013-10-22 02:52:00,
2013-10-21 23:12:00,54.0,53.0,29.95,NNW,347,0.0,-999.0,96,-99.99,,,-99.99,,2013-10-22 03:12:00,
2013-10-21 23:23:00,54.0,53.0,29.93,NNW,347,0.0,-999.0,96,-99.99,,,-99.99,,2013-10-22 03:23:00,
2013-10-21 23:45:00,54.0,53.0,29.93,NNW,347,0.0,-999.0,96,-99.99,,,-99.99,,2013-10-22 03:45:00,
2013-10-21 23:55:00,54.0,53.0,29.93,NNW,347,0.0,-999.0,96,-99.99,,,-99.99,,2013-10-22 03:55:00,